Regional Weather Roundup
Issued by NWS

Home | Current Version | Previous Version | Graphics & Text | Print | Product List | Glossary On
Versions: 1 2 3 4 5 6 7 8 9 10 11 12 13 14 15 16 17 18 19 20 21 22 23 24 25 26 27 28 29 30 31 32 33 34 35 36 37 38 39 40 41 42 43 44 45 46 47 48 49 50
000
ASUS43 KLSX 261057
RWRMO

WEATHER SUMMARY FOR MISSOURI
NATIONAL WEATHER SERVICE SPRINGFIELD MO
600 AM CDT TUE JUL 26 2016

NOTE: "FAIR" INDICATES FEW OR NO CLOUDS BELOW 12,000 FEET WITH NO
       SIGNIFICANT WEATHER AND/OR OBSTRUCTIONS TO VISIBILITY.
       CURRENT SKY AND/OR WEATHER CONDITIONS ARE NOT AVAILABLE FOR
       CHILLICOTHE AND FARMINGTON.

MOZ001>031-035>038-043-044-053-054-261200-
...NORTHERN AND WESTERN MISSOURI...

CITY           SKY/WX    TMP DP  RH WIND       PRES   REMARKS
KANSAS CTY INT CLEAR     69  67  93 NE6       30.07R
ST JOSEPH      CLEAR     66  64  93 N5        30.07R

$$
MOZ066>068-077>081-088>096-101>105-261200-
...SOUTHWEST MISSOURI...

CITY           SKY/WX    TMP DP  RH WIND       PRES   REMARKS
SPRINGFIELD    CLOUDY    75  71  87 NE3       30.02S
JOPLIN         MOCLDY    74  72  93 NE3       30.01R

$$
MOZ032>034-039>042-045>050-055>058-069>072-261200-
...CENTRAL MISSOURI...

CITY           SKY/WX    TMP DP  RH WIND       PRES   REMARKS
COLUMBIA       NOT AVBL
JEFFERSON CITY PTCLDY    70  68  93 W3        30.03R
ROLLA          CLOUDY    71  69  93 NE5       30.03S
SEDALIA        CLOUDY    72  70  93 CALM      30.06R

$$
MOZ051-052-059>065-261200-
...EAST CENTRAL MISSOURI...

CITY           SKY/WX    TMP DP  RH WIND       PRES   REMARKS
ST LOUIS INTL  CLOUDY    77  72  84 N5        30.03R

$$
MOZ072>076-082>087-097>100-106>115-261200-
...SOUTH CENTRAL AND SOUTHEAST MISSOURI...

CITY           SKY/WX    TMP DP  RH WIND       PRES   REMARKS
CAPE GIRARDEAU MOCLDY    75  73  93 CALM      30.00R
POPLAR BLUFF   CLOUDY    75  74  96 CALM      30.00R FOG
WEST PLAINS    CLOUDY    74  72  93 CALM      30.06R

$$


USA.gov is the U.S. government's official web portal to all federal, state and local government web resources and services.